FW3092 Weather Reports


time (UTC)temp
C
wind
direction
speed
KPH
gust
KPH
rain 1hr
cm
rain 24hr
cm
rain mn
cm
humidity
%
barometer
mb
20260507000036 5 284 1.6 9.7 0.00 0.84 0.84 93 953.5
20260506234534 5 267 3.2 6.4 0.00 0.84 0.84 93 953.3
20260506233030 5 309 1.6 4.8 0.00 0.84 0.84 93 953.0
20260506231530 5 288 0.0 6.4 0.00 0.84 0.84 93 952.9
20260506230034 6 329 1.6 11.3 0.00 0.84 0.84 93 952.8
20260506224529 6 306 3.2 9.7 0.00 0.84 0.84 93 952.8
20260506223027 6 290 1.6 12.9 0.00 0.84 0.84 93 952.5
20260506221524 6 27 3.2 9.7 0.00 0.84 0.84 93 952.6
20260506220030 6 122 4.8 14.5 0.00 0.84 0.84 93 952.3
20260506214522 6 284 6.4 19.3 0.00 0.84 0.84 93 952.6
20260506213027 6 289 9.7 17.7 0.00 0.84 0.84 93 952.3
20260506211516 6 301 4.8 17.7 0.00 0.84 0.84 93 952.0
20260506210015 6 338 6.4 16.1 0.00 0.86 0.84 93 951.7
20260506204514 7 291 6.4 17.7 0.05 0.86 0.84 93 951.3
20260506203022 7 319 4.8 17.7 0.05 0.86 0.84 93 951.3
20260506201511 7 78 1.6 12.9 0.10 0.86 0.84 93 950.9
20260506200008 7 308 3.2 12.9 0.13 0.97 0.84 93 950.8
20260506194511 7 284 3.2 14.5 0.08 0.91 0.79 93 950.8
20260506193007 7 257 3.2 19.3 0.08 0.89 0.76 93 950.8
20260506191507 7 332 4.8 16.1 0.05 0.86 0.71 93 950.7
20260506190007 7 300 4.8 8.0 0.03 0.86 0.71 93 950.5
20260506184503 7 299 3.2 8.0 0.03 0.86 0.71 93 950.2
20260506183002 7 338 4.8 16.1 0.00 0.84 0.69 92 950.1
20260506181602 7 273 3.2 16.1 0.00 0.84 0.69 92 950.1
20260506181502 7 277 4.8 16.1 0.03 0.84 0.69 92 950.1
20260506180101 7 314 4.8 16.1 0.03 0.84 0.69 92 950.1
20260506174602 7 285 3.2 12.9 0.03 0.97 0.69 92 949.9
20260506173104 7 309 4.8 12.9 0.03 0.97 0.69 92 949.7
20260506171551 8 5 3.2 12.9 0.00 0.94 0.66 92 949.5
20260506170050 9 341 4.8 14.5 0.00 0.94 0.66 91 949.7
20260506164552 10 217 1.6 9.7 0.03 0.94 0.66 91 949.7
20260506163052 12 275 9.7 16.1 0.03 0.94 0.66 93 949.4
20260506161556 12 221 11.3 17.7 0.03 0.94 0.66 93 949.3
20260506160049 12 219 11.3 17.7 0.03 0.94 0.66 93 949.3
20260506154547 12 213 8.0 20.9 0.03 0.91 0.64 93 949.5
20260506153047 12 185 8.0 16.1 0.03 0.91 0.64 93 949.5
20260506151600 12 190 4.8 11.3 0.05 0.91 0.64 93 949.6
20260506150047 12 184 9.7 16.1 0.05 0.91 0.64 93 949.6
20260506144543 12 195 6.4 12.9 0.05 0.89 0.61 93 949.4
20260506143048 12 190 8.0 16.1 0.10 0.89 0.61 93 949.3
20260506141540 12 184 8.0 11.3 0.13 0.86 0.58 93 949.5
20260506140139 12 178 8.0 16.1 0.20 0.86 0.58 93 949.6
20260506134533 11 184 9.7 14.5 0.28 0.84 0.56 93 949.7
20260506133031 11 202 11.3 19.3 0.28 0.79 0.51 93 950.0
20260506131530 11 173 9.7 17.7 0.25 0.71 0.46 93 950.2
20260506130024 10 175 8.0 14.5 0.20 0.66 0.38 93 950.5
20260506124523 10 187 6.4 12.9 0.13 0.56 0.28 93 950.2
20260506123022 10 181 8.0 14.5 0.10 0.51 0.23 93 950.0
20260506121520 10 145 3.2 11.3 0.10 0.48 0.20 93 949.7
20260506120016 10 124 1.6 9.7 0.10 0.46 0.18 92 950.0
20260506114520 9 146 1.6 4.8 0.08 0.43 0.15 92 950.5
20260506113014 8 5 0.0 1.6 0.05 0.41 0.13 92 950.4
20260506111511 8 5 0.0 0.0 0.05 0.38 0.10 92 950.6
20260506110010 8 5 0.0 0.0 0.03 0.36 0.08 92 950.5
20260506104509 8 5 0.0 3.2 0.03 0.36 0.08 91 950.6
20260506103014 8 355 1.6 6.4 0.05 0.36 0.08 91 950.5
20260506101506 8 342 1.6 8.0 0.03 0.33 0.05 91 950.1
20260506100004 9 343 3.2 6.4 0.05 0.33 0.05 91 950.0
20260506094513 9 155 1.6 3.2 0.05 0.33 0.05 91 950.2
20260506093007 9 155 1.6 3.2 0.03 0.30 0.03 91 950.1
20260506091503 8 186 0.0 0.0 0.03 0.30 0.03 91 950.1
20260506090001 8 186 0.0 3.2 0.00 0.28 0.00 91 950.4
20260506084608 8 136 1.6 4.8 0.00 0.28 0.00 91 950.5
20260506083059 8 136 0.0 4.8 0.00 0.28 0.00 91 950.6
20260506081559 8 67 3.2 9.7 0.00 0.28 0.00 91 950.6
20260506073052 8 46 0.0 3.2 0.00 0.28 0.00 90 950.7
20260506071607 8 41 0.0 4.8 0.00 0.28 0.00 90 950.8
20260506061544 9 71 3.2 6.4 0.00 0.28 0.00 89 951.4
20260506044535 10 66 1.6 4.8 0.00 0.28 0.00 88 952.4
20260506043031 10 66 1.6 8.0 0.00 0.28 0.00 87 952.5
20260506041545 10 69 3.2 6.4 0.00 0.28 0.00 87 952.4
20260506040027 10 64 3.2 8.0 0.00 0.28 0.00 87 952.3
20260506034524 10 65 1.6 8.0 0.00 0.28 0.28 87 952.6
20260506033028 10 46 0.0 8.0 0.00 0.28 0.28 87 952.9
20260506031525 10 26 0.0 6.4 0.00 0.28 0.28 87 952.5
20260506030024 11 22 0.0 8.0 0.00 0.28 0.28 87 952.8
20260506024516 11 29 1.6 12.9 0.00 0.28 0.28 87 952.8
20260506023015 11 317 1.6 8.0 0.00 0.28 0.28 86 952.8
20260506021512 11 348 1.6 8.0 0.00 0.28 0.28 86 952.9
20260506020014 12 341 1.6 8.0 0.00 0.28 0.28 86 952.8
20260506014511 12 43 1.6 14.5 0.00 0.28 0.28 87 952.4
20260506013002 13 308 1.6 16.1 0.00 0.28 0.28 87 952.2
20260506011604 14 256 4.8 17.7 0.00 0.28 0.28 87 952.0
20260506004600 15 320 3.2 14.5 0.00 0.28 0.28 86 951.7
20260506003056 15 280 4.8 12.9 0.00 0.28 0.28 86 951.6
20260506001614 15 281 3.2 14.5 0.00 0.28 0.28 85 951.2